CARTOSAT-2D

Last updated on Tue Sep 16 2025 00:02:31 GMT+0000 (Coordinated Universal Time)

1 41948U 17008A 25258.63887384 .00005987 00000+0 28733-3 0 9995 2 41948 97.4523 317.4063 0005729 118.4298 241.7515 15.19227321475899
UTC large
Height (km)
Speed (km/s)
/
Latitude / Longitude
Inclination (degrees)
Orbital Period (minutes)
Azimuth
Elevation
Range (km)
Doppler Factor

Next 0 passes for location: London (51.5072 / 0.1276)

Sorry there are no passes over London.